Quillayute, WA
on Sunday, January 13, 2013

Sunday
Previous Day Next Day
Daily Summary
 ActualAverageRecord
Temperature
Mean Temperature °F 42°F  
Max Temperature 36°F 47°F 63°F (1986)
Min Temperature 24°F 36°F 22°F (1997)
Degree Days
Heating Degree Days 35 23  
Month to date heating degree days 311  
Since 1 July heating degree days 2789  
Cooling Degree Days 0 0  
Month to date cooling degree days 0  
Year to date cooling degree days 0  
Moisture
Dew Point 30°F   
Average Humidity 90    
Maximum Humidity 96    
Minimum Humidity 75    
Precipitation
Precipitation 0.01 in 0.49 in 1.97 in (1996)
Month to date precipitation 6.26  
Year to date precipitation 6.26  
Wind
Wind Speed 1 mph   
Max Wind Speed 8 mph   
Max Gust Speed 9 mph   
Visibility 4 miles   
Events Snow   

Key: T is trace of precipitation, MM is missing value
Source: NWS Daily Summary
Time(PST)TemperatureDew PointHumidity Pressure Visibility Wind DirectionWind SpeedGust SpeedPrecipitationEvents Conditions
12:53 AM 28.9°F 26.1°F 89% 30.43 in 6.0 miles East 4.6 mph - N/A   Mostly Cloudy
1:53 AM 28.9°F 26.1°F 89% 30.44 in 6.0 miles East 8.1 mph - N/A   Overcast
2:53 AM 28.0°F 26.1°F 92% 30.45 in 6.0 miles Calm Calm - N/A   Overcast
3:53 AM 27.0°F 25.0°F 92% 30.44 in 6.0 miles Calm Calm - N/A   Scattered Clouds
4:53 AM 25.0°F 23.0°F 92% 30.43 in 5.0 miles Calm Calm - N/A   Clear
5:53 AM 26.1°F 24.1°F 92% 30.43 in 6.0 miles Calm Calm - N/A   Partly Cloudy
6:53 AM 27.0°F 24.1°F 89% 30.45 in 6.0 miles ENE 3.5 mph - N/A   Clear
7:53 AM 26.1°F 24.1°F 92% 30.47 in 6.0 miles Calm Calm - N/A   Overcast
8:53 AM 28.0°F 25.0°F 88% 30.48 in 5.0 miles East 3.5 mph - N/A   Mostly Cloudy
9:53 AM 30.0°F 28.0°F 92% 30.48 in 5.0 miles ENE 4.6 mph - N/A   Clear
10:53 AM 32.0°F 28.9°F 88% 30.48 in 5.0 miles East 4.6 mph - N/A   Partly Cloudy
11:53 AM 34.0°F 30.0°F 85% 30.46 in 5.0 miles Calm Calm - N/A   Scattered Clouds
12:53 PM 35.1°F 30.0°F 82% 30.45 in 5.0 miles East 3.5 mph - N/A   Haze
1:53 PM 35.1°F 30.9°F 85% 30.44 in 4.0 miles Calm Calm - N/A   Overcast
2:53 PM 36.0°F 30.0°F 79% 30.44 in 5.0 miles Calm Calm - N/A   Haze
3:53 PM 36.0°F 30.9°F 82% 30.45 in 4.0 miles ENE 3.5 mph - N/A   Haze
4:14 PM 35.6°F 30.2°F 81% 30.45 in 4.0 miles Calm Calm - N/A   Haze
4:19 PM 35.6°F 30.2°F 81% 30.44 in 2.5 miles Calm Calm - N/A   Haze
4:29 PM 35.6°F 30.2°F 81% 30.44 in 2.0 miles Calm Calm - 0.00 in Snow Light Snow
4:40 PM 35.6°F 30.2°F 81% 30.44 in 4.0 miles Calm Calm - 0.00 in   Overcast
4:53 PM 35.1°F 32.0°F 89% 30.43 in 4.0 miles Calm Calm - 0.00 in   Overcast
5:27 PM 33.8°F 32.0°F 93% 30.44 in 2.5 miles ENE 3.5 mph - 0.00 in Snow Light Snow
5:48 PM 33.8°F 32.0°F 93% 30.44 in 3.0 miles Calm Calm - 0.00 in   Overcast
5:53 PM 34.0°F 32.0°F 92% 30.45 in 2.5 miles Calm Calm - 0.00 in Snow Light Snow
6:07 PM 33.8°F 32.0°F 93% 30.44 in 3.0 miles Calm Calm - 0.00 in   Overcast
6:16 PM 33.8°F 32.0°F 93% 30.44 in 1.8 miles Calm Calm - 0.00 in Snow Light Snow
6:25 PM 33.8°F 32.0°F 93% 30.44 in 1.2 miles Calm Calm - 0.00 in Snow Light Snow
6:53 PM 33.1°F 32.0°F 96% 30.45 in 1.5 miles Calm Calm - 0.00 in Snow Light Snow
7:09 PM 33.8°F 32.0°F 93% 30.44 in 2.5 miles Calm Calm - 0.01 in   Overcast
7:18 PM 33.8°F 32.0°F 93% 30.44 in 3.0 miles Calm Calm - 0.01 in   Overcast
7:31 PM 33.8°F 32.0°F 93% 30.44 in 2.5 miles Calm Calm - 0.01 in Snow Light Snow
7:39 PM 33.8°F 32.0°F 93% 30.45 in 3.0 miles Calm Calm - 0.01 in   Overcast
7:53 PM 33.1°F 32.0°F 96% 30.47 in 4.0 miles Calm Calm - 0.01 in   Overcast
8:53 PM 33.1°F 32.0°F 96% 30.46 in 5.0 miles Calm Calm - N/A   Overcast
9:53 PM 33.1°F 32.0°F 96% 30.46 in 5.0 miles Calm Calm - N/A   Overcast
10:53 PM 33.1°F 32.0°F 96% 30.47 in 6.0 miles Calm Calm - N/A   Overcast
11:53 PM 33.1°F 32.0°F 96% 30.48 in 5.0 miles Calm Calm - N/A   Overcast
Moon Phase
Jan. 13 Jan. 18 Jan. 26 Feb. 03 Feb. 10
Sunrise:08:03 AM (PST) Moon Rise:08:52 AM (PST)1/13
Sunset:04:50 PM (PST) Moon Set:07:51 PM (PST)1/13

Copyright © 2014 The Weather Underground, Inc.